STARLINK-32447, 61261

Orbit data source: Space-Track

STARLINK-32447, 61261 is a payload satellite owned by SpaceX/Seattle (US) in LEO that was launched on Wed, 25 Sep 2024 UTC via an FALCON 9 launch vehicle from the Air Force Western Test Range (AFWTR). Payload-class satellites include a variety of spacecraft equipped with specific instruments for various scientific and technological missions. These include communications satellites like Starlink; space stations such as the ISS; scientific satellites like the Hubble; Earth observation satellites from companies like Planet Labs, Umbra, and HawkEye 360; GPS; miniature CubeSats for education and research; and military/defense satellites.

Loading next visibility...
Identifier
61261, 2024-175U
Orbit
LEO
Last TLE update
8 hours ago
Origin
Manufacturer
SpaceX/Seattle
Mission
Operational Commercial Communications
Bus & Motor
STARLINK V2M, Unknown motor
Mass
730 kg wet, ~700 kg dry
Launch date (UTC)
2024-09-25 (10 months ago)
Launch vehicle
FALCON 9
Launch site
Air Force Western Test Range (AFWTR)
Object type
Payload
Rocket body
Debris
Shape & HBR
Box + 2 Pan, 29 m
Radar Cross Section
33.884 m², Large (>1 m²)

Expand to show TLE details & history

TLE from 8 hours ago
0 STARLINK-32447
1 61261U 24175U   25192.08757911 -.00000761  00000-0 -13572-4 0  9990
2 61261  53.1592 236.2273 0001089  90.6500 269.4625 15.30188142 45664
Epoch: 2025-07-11T02:06Z
TLE epoch observation values (Epoch: 2025-07-11T02:06:06.835Z)
Latitude
-0.00005°
Longitude
-84.54575°
Altitude
476.157 km
Speed
7.629 km/s
True Right ascension
15h 44m 54s
True Declination
0° 00' 00"
Sunlit
Object was in full shadow at epoch
Visualization orbit readout
Latitude
-4.61541°
Longitude
-89.50655°
Altitude
476.96 km
Speed
7.628 km/s
Apparent Right ascension
13h 19m 20s
Apparent Declination
-26° 40' 47"
Sunlit
Object is in full shadow
Visualization observer readout
Local Sidereal Time
22:12:40
Azimuth
274.318° WNW
Elevation
-49.323°
Doppler factor
1
Orbital elements
Apogee altitude
476.253 km
Perigee altitude
474.761 km
Semi-major axis
6,853.644 km
Eccentricity
0.00011
Inclination
53.1592°
RAAN
236.2273°
Arg. of periapsis
90.65°
True anomaly
Unknown
Mean anomaly
269.4625°
Eccentric anomaly
Unknown
Mean motion
3.82526 °/min
Orbital period
94.11 mins
BSTAR
-0.000013572
Loading maneuver chart data...
Loading SW <> Apogee altitude chart data...
Loading historical data...
Loading historical data...
Loading historical data...
Loading historical data...
Loading historical data...
Loading historical data...
Loading historical data...

STARLINK-32447 Visibility forecast

Observer location: undefined°, undefined°

Span
Click to sort rows by Start time (UTC) header in descending order
Start Az.
Max El. time (UTC)
Max El. Az.
Max El.
End time (UTC)
End Az.
5 mins2025-07-11 11:59:52.959Z336.114° NNW2025-07-11 12:01:52.959Z36.12° NE32.073°2025-07-11 12:04:52.959Z101.322° ESE
4 mins2025-07-11 13:37:52.959Z269.68° W2025-07-11 13:39:52.959Z221.083° SW22.772°2025-07-11 13:41:52.959Z180.711° SSW
4 mins2025-07-12 04:55:52.959Z180.805° SSW2025-07-12 04:57:52.959Z115.461° SE29.39°2025-07-12 04:59:52.959Z73.001° E
4 mins2025-07-12 06:33:52.959Z288.489° WNW2025-07-12 06:34:52.959Z313.858° NW25.804°2025-07-12 06:37:52.959Z26.33° NE
|